Change the Weather History Date:

Saturday, December 1, 2012

  Actual Average Record
Temperature  
Mean Temperature 42 °F 33 °F  
Max Temperature 58 °F 41 °F 58 °F (2012)
Min Temperature 26 °F 24 °F 10 °F (2002)
Degree Days  
Heating Degree Days 23 32  
Month to date heating degree days 23 32  
Since 1 July heating degree days 1452 1286  
Cooling Degree Days 0 0  
Month to date cooling degree days 0 0  
Year to date cooling degree days 1093 814  
Moisture  
Dew Point 39 °F    
Average Humidity 88    
Maximum Humidity 100    
Minimum Humidity 75    
Precipitation  
Precipitation T in 0.07 in 0.54 in (2006)
Month to date precipitation T 0.07  
Year to date precipitation 19.85 35.26  
Sea Level Pressure  
Sea Level Pressure 30.02 in    
Wind  
Wind Speed 9 mph (South)    
Max Wind Speed 21 mph    
Max Gust Speed 28 mph    
Visibility 4 miles    
Events Fog    
T = Trace of Precipitation, MM = Missing Value Source: NWS Daily Summary

Daily Weather History Graph

Daily Weather History Graph

Search for Another Location

Airport or City:

Trip Planner

Search our weather history database for the weather conditions in past years. The results will help you decide how hot, cold, wet, or windy it might be!

Date:

Astronomy

Dec. 01, 2012 Rise Set
Actual Time 7:01 AM CST 4:22 PM CST
Civil Twilight 6:30 AM CST 4:53 PM CST
Nautical Twilight 5:55 AM CST 5:28 PM CST
Astronomical Twilight 5:22 AM CST 6:02 PM CST
Moon 7:13 PM CST (12/1) 9:13 AM CST (12/1)
Length of Visible Light 10h 23m
Length of Day
9h 21m
Waning Gibbous, 91% of the Moon is Illuminated
Dec 1
Waning Gibbous
Dec 6
Last Quarter
Dec 13
New
Dec 19
First Quarter
Dec 28
Full

Hourly Weather History & Observations

Time (CST) Temp. Windchill Dew Point Humidity Pressure Visibility Wind Dir Wind Speed Gust Speed Precip Events Conditions
12:17 AM 32.0 °F 28.7 °F 30.2 °F 93% 30.12 in 2.0 mi NNE 3.5 mph - N/A   Scattered Clouds
12:52 AM 30.9 °F - 30.9 °F 100% 30.12 in 2.0 mi Calm Calm - N/A   Clear
1:05 AM 32.0 °F 28.7 °F 30.2 °F 93% 30.10 in 2.0 mi NNE 3.5 mph - N/A   Scattered Clouds
1:15 AM 30.2 °F 26.7 °F 30.2 °F 100% 30.10 in 2.0 mi North 3.5 mph - N/A   Mostly Cloudy
1:32 AM 30.2 °F 26.7 °F 30.2 °F 100% 30.11 in 2.0 mi North 3.5 mph - N/A   Scattered Clouds
1:52 AM 30.9 °F - 30.0 °F 96% 30.13 in 2.0 mi Calm Calm - N/A   Scattered Clouds
2:06 AM 30.2 °F - 30.2 °F 100% 30.11 in 1.5 mi Calm Calm - N/A Fog Shallow Fog
2:52 AM 30.0 °F - 28.9 °F 96% 30.14 in 1.5 mi Calm Calm - N/A Fog Shallow Fog
2:59 AM 28.4 °F 24.6 °F 28.4 °F 100% 30.11 in 0.2 mi North 3.5 mph - N/A Fog Shallow Fog
3:18 AM 28.4 °F 23.3 °F 26.6 °F 93% 30.11 in 0.2 mi North 4.6 mph - N/A Fog Light Freezing Fog
3:52 AM 27.0 °F 23.0 °F 26.1 °F 96% 30.12 in 0.2 mi North 3.5 mph - N/A Fog Light Freezing Fog
4:20 AM 26.6 °F - 26.6 °F 100% 30.07 in 0.2 mi Calm Calm - N/A Fog Light Freezing Fog
4:27 AM 26.6 °F - 26.6 °F 100% 30.07 in 0.5 mi Calm Calm - N/A Fog Light Freezing Fog
4:35 AM 26.6 °F - 26.6 °F 100% 30.07 in 0.2 mi Calm Calm - N/A Fog Light Freezing Fog
4:52 AM 27.0 °F - 27.0 °F 100% 30.12 in 0.2 mi Calm Calm - N/A Fog Light Freezing Fog
4:57 AM 28.4 °F - 26.6 °F 93% 30.10 in 3.0 mi Calm Calm - N/A   Scattered Clouds
5:16 AM 28.4 °F - 26.6 °F 93% 30.09 in 3.0 mi Calm Calm - N/A   Mostly Cloudy
5:36 AM 28.4 °F - 26.6 °F 93% 30.09 in 1.5 mi Calm Calm - N/A   Overcast
5:41 AM 28.4 °F - 26.6 °F 93% 30.09 in 0.2 mi Calm Calm - N/A Fog Light Freezing Fog
5:52 AM 28.0 °F - 27.0 °F 96% 30.11 in 3.0 mi Calm Calm - N/A   Overcast
6:04 AM 28.4 °F 24.6 °F 28.4 °F 100% 30.08 in 4.0 mi SSE 3.5 mph - N/A Fog Shallow Fog
6:52 AM 28.9 °F - 28.0 °F 96% 30.10 in 4.0 mi Calm Calm - N/A Fog Shallow Fog
7:52 AM 32.0 °F 25.6 °F 32.0 °F 100% 30.09 in 3.0 mi SSE 6.9 mph - N/A   Clear
8:52 AM 39.0 °F 32.8 °F 37.9 °F 96% 30.09 in 3.0 mi South 9.2 mph - N/A   Clear
9:52 AM 45.0 °F 39.3 °F 41.0 °F 86% 30.09 in 5.0 mi South 11.5 mph - N/A   Clear
10:52 AM 48.9 °F - 43.0 °F 80% 30.06 in 5.0 mi South 9.2 mph - N/A   Haze
11:52 AM 52.0 °F - 45.0 °F 77% 30.01 in 6.0 mi SSE 9.2 mph - N/A   Haze
12:40 PM 53.6 °F - 46.4 °F 77% 29.99 in 5.0 mi South 15.0 mph - N/A   Haze
12:52 PM 52.0 °F - 46.9 °F 83% 30.00 in 5.0 mi South 15.0 mph - N/A   Haze
1:07 PM 51.8 °F - 48.2 °F 88% 29.98 in 4.0 mi South 13.8 mph - N/A   Overcast
1:52 PM 53.1 °F - 48.9 °F 86% 29.98 in 3.0 mi South 11.5 mph - N/A   Overcast
2:52 PM 55.0 °F - 48.9 °F 80% 29.96 in 5.0 mi South 12.7 mph - N/A   Haze
2:59 PM 55.4 °F - 48.2 °F 77% 29.95 in 5.0 mi South 15.0 mph - N/A   Haze
3:11 PM 55.4 °F - 48.2 °F 77% 29.94 in 5.0 mi South 13.8 mph - N/A   Haze
3:52 PM 54.0 °F - 48.9 °F 83% 29.93 in 5.0 mi SSE 9.2 mph - N/A   Haze
4:52 PM 55.0 °F - 50.0 °F 83% 29.94 in 7.0 mi South 9.2 mph - N/A   Overcast
5:24 PM 55.4 °F - 50.0 °F 82% 29.91 in 7.0 mi SSE 9.2 mph - N/A   Overcast
5:45 PM 57.2 °F - 50.0 °F 77% 29.90 in 8.0 mi South 16.1 mph - N/A   Scattered Clouds
5:52 PM 57.0 °F - 50.0 °F 77% 29.92 in 8.0 mi South 16.1 mph - N/A   Partly Cloudy
6:10 PM 57.2 °F - 50.0 °F 77% 29.92 in 9.0 mi South 17.3 mph - N/A   Mostly Cloudy
6:22 PM 57.2 °F - 50.0 °F 77% 29.91 in 9.0 mi South 18.4 mph - N/A   Overcast
6:50 PM 57.2 °F - 50.0 °F 77% 29.91 in 9.0 mi South 17.3 mph - 0.00 in   Overcast
6:52 PM 57.9 °F - 50.0 °F 75% 29.93 in 9.0 mi South 16.1 mph - 0.00 in   Overcast
7:32 PM 57.2 °F - 50.0 °F 77% 29.91 in 9.0 mi South 15.0 mph 25.3 mph 0.00 in   Overcast
7:52 PM 57.0 °F - 50.0 °F 77% 29.91 in 10.0 mi South 17.3 mph - 0.00 in   Overcast
8:52 PM 57.0 °F - 50.0 °F 77% 29.92 in 10.0 mi South 13.8 mph - N/A   Overcast
9:52 PM 57.0 °F - 50.0 °F 77% 29.91 in 10.0 mi South 15.0 mph - N/A   Overcast
10:52 PM 57.0 °F - 50.0 °F 77% 29.89 in 10.0 mi South 12.7 mph - N/A   Overcast
11:52 PM 57.0 °F - 50.0 °F 77% 29.88 in 10.0 mi South 13.8 mph 23.0 mph N/A   Mostly Cloudy